sat.trackr.live / text

‹ back to catalog

STARLINK-11546 [DTC]

NORAD 62835 · 2025-019G

PAYLOAD ACTIVE UNKNOWN

§ Identity

Operator
Country
US
Launch date
2025-01-27
Launch site
AFETR
Launch vehicle
Mass (kg)
RCS (m²)

Purposes: comms

External: N2YO · Heavens-Above · Gunter

§ Orbital elements

Epoch: 2026-05-24T12:53:13.591104Z

Period
91.66 min
Inclination
43.0000°
Eccentricity
0.0002652
Mean motion
15.70937899 rev/d
Perigee alt
354.4 km
Apogee alt
358.0 km
Semi-major
6,734.4 km
B*
1.4663e-3
RAAN
209.3287°
Arg perigee
259.0234°
Mean anomaly
101.0335°
Rev number
7,580

§ Raw data

STARLINK-11546 [DTC]1 62835U 25019G   26144.53696286  .00192935  00000+0  14663-2 0  99932 62835  43.0000 209.3287 0002652 259.0234 101.0335 15.70937899 75805

JSON: /api/v1/satellites/62835 · /tle

For live sub-satellite position, see the globe view (requires WebGL).

§ Visibility from observer

Set your observer location to see the next 7 days of passes ≥ 10°. The values pass through the URL so the page stays shareable.

No JS? Fill the form by hand. The geolocation button needs JavaScript.